Abilene Dyess, TX

1:48 PM CST on November 14, 2019 (GMT -0600)
Dyess Air Force Base

Weather History for KDYS - July, 2019

Change the Weather History Date:

Monday, July 15, 2019

  Actual Average Record
Temperature  
Mean Temperature 84 °F -  
Max Temperature 97 °F 95 °F 105 °F (2001)
Min Temperature 71 °F 73 °F 63 °F (2013)
Cooling Degree Days 19    
Growing Degree Days 34 (Base 50)    
Moisture  
Dew Point 63 °F    
Average Humidity 50    
Maximum Humidity 78    
Minimum Humidity 27    
Precipitation  
Precipitation 0.00 in - - ()
Sea Level Pressure  
Sea Level Pressure 29.81 in    
Wind  
Wind Speed 3 mph (ESE)    
Max Wind Speed 13 mph    
Max Gust Speed -    
Visibility 9 miles    
Events      
Averages and records for this station are not official NWS values.
T = Trace of Precipitation, MM = Missing Value Source: NWS Daily Summary

Daily Weather History Graph

Daily Weather History Graph

Search for Another Location

Airport or City:

Astronomy

Jul. 15, 2019 Rise Set
Actual Time 6:42 AM CDT 8:47 PM CDT
Civil Twilight 6:15 AM CDT 9:15 PM CDT
Nautical Twilight 5:41 AM CDT 9:49 PM CDT
Astronomical Twilight 5:04 AM CDT 10:25 PM CDT
Moon 8:05 PM CDT (7/15) 5:32 AM CDT (7/15)
Length of Visible Light 15h 00m
Length of Day
14h 04m
Waxing Gibbous, 99% of the Moon is Illuminated
Jul 15
Waxing Gibbous
Jul 16
Full
Jul 24
Last Quarter
Jul 31
New
Aug 7
First Quarter

Hourly Weather History & Observations

Time (CDT) Temp. Heat Index Dew Point Humidity Pressure Visibility Wind Dir Wind Speed Gust Speed Precip Events Conditions
12:56 AM 78.6 °F - 66.2 °F 66% 29.83 in 10.0 mi SE 3.5 mph - N/A   Clear
1:56 AM 76.1 °F - 66.4 °F 72% 29.83 in 10.0 mi SE 4.6 mph - N/A   Clear
2:56 AM 76.3 °F - 66.2 °F 71% 29.83 in 10.0 mi South 3.5 mph - N/A   Scattered Clouds
3:56 AM 74.3 °F - 65.8 °F 75% 29.83 in 10.0 mi Calm Calm - N/A   Partly Cloudy
4:56 AM 73.6 °F - 65.1 °F 75% 29.83 in 10.0 mi Calm Calm - N/A   Partly Cloudy
5:56 AM 73.0 °F - 64.6 °F 75% 29.84 in 10.0 mi Calm Calm - N/A   Clear
6:56 AM 71.6 °F - 64.4 °F 78% 29.85 in 10.0 mi SE 5.8 mph - N/A   Clear
7:56 AM 75.9 °F - 65.8 °F 71% 29.86 in 10.0 mi Calm Calm - N/A   Clear
8:56 AM 82.0 °F 83.9 °F 65.3 °F 57% 29.86 in 10.0 mi South 3.5 mph - N/A   Clear
9:56 AM 85.6 °F 87.6 °F 65.8 °F 51% 29.86 in 10.0 mi Calm Calm - N/A   Partly Cloudy
10:56 AM 87.4 °F 88.8 °F 64.0 °F 46% 29.86 in 10.0 mi Calm Calm - N/A   Clear
11:56 AM 88.7 °F 90.4 °F 64.6 °F 45% 29.86 in 10.0 mi Calm Calm - N/A   Partly Cloudy
12:56 PM 91.6 °F 92.7 °F 63.7 °F 39% 29.84 in 10.0 mi Calm Calm - N/A   Scattered Clouds
1:56 PM 92.7 °F 93.2 °F 61.7 °F 36% 29.81 in 7.0 mi ENE 5.8 mph - N/A   Overcast
2:26 PM 93.2 °F 93.3 °F 60.8 °F 34% 29.81 in 2.2 mi Calm Calm - N/A   Haze
2:41 PM 95.0 °F 95.2 °F 60.8 °F 32% 29.80 in 10.0 mi SSE 5.8 mph - N/A   Mostly Cloudy
2:56 PM 94.3 °F 94.1 °F 60.6 °F 32% 29.80 in 10.0 mi East 6.9 mph - N/A   Mostly Cloudy
3:56 PM 95.5 °F 95.2 °F 59.2 °F 30% 29.78 in 7.0 mi East 3.5 mph - N/A   Mostly Cloudy
4:56 PM 97.0 °F 96.9 °F 59.4 °F 29% 29.76 in 7.0 mi East 8.1 mph - N/A   Partly Cloudy
5:56 PM 96.3 °F 95.1 °F 56.8 °F 27% 29.75 in 7.0 mi Calm Calm - N/A   Partly Cloudy
6:56 PM 95.5 °F 94.8 °F 58.1 °F 29% 29.74 in 10.0 mi NE 4.6 mph - N/A   Clear
7:56 PM 93.0 °F 95.0 °F 64.4 °F 39% 29.75 in 10.0 mi East 12.7 mph - N/A   Clear
8:56 PM 89.8 °F 90.7 °F 63.0 °F 41% 29.76 in 10.0 mi East 11.5 mph - N/A   Clear
9:56 PM 86.7 °F 87.5 °F 63.3 °F 45% 29.77 in 10.0 mi ESE 8.1 mph - N/A   Clear
10:56 PM 82.2 °F 83.7 °F 63.9 °F 54% 29.79 in 10.0 mi SE 6.9 mph - N/A   Clear
11:56 PM 79.9 °F - 62.8 °F 56% 29.79 in 10.0 mi South 4.6 mph - N/A   Clear